Wind_Speed
35 34 36 36 36 36 34 30 26 27 28 30 28 29 26 29 27 28 24 23 20 19 17 16 16 17 17 17 20 22 21 20 20 17 18 18 16 13 10 6 3 3 3 4 4 2 3 4 3
38 38 38 40 41 40 36 28 31 28 31 30 30 29 27 30 29 27 24 25 22 20 18 17 17 19 18 18 22 23 23 22 21 18 20 19 16 13 9 5 2 1 2 5 7 5 3 4 4
42 42 42 42 43 43 39 30 29 31 34 34 32 32 32 38 27 28 27 26 24 22 19 19 18 20 20 19 22 25 24 22 21 20 21 19 16 13 9 7 4 3 4 7 9 8 5 6 7
47 48 47 46 45 43 40 31 32 33 36 37 32 34 34 32 33 30 31 28 24 24 21 21 20 21 21 21 21 26 25 24 23 21 22 21 18 15 12 8 5 6 7 9 11 11 9 8 8
49 54 53 49 45 45 43 38 35 38 37 41 36 36 35 34 35 33 32 30 27 25 25 23 22 23 23 24 22 26 27 25 24 23 24 23 20 17 13 10 9 9 9 11 13 14 11 10 8
47 52 57 52 49 48 45 42 39 41 43 43 40 38 39 35 37 37 35 30 26 26 26 25 24 24 25 26 26 26 28 27 25 25 26 25 22 18 15 13 13 11 11 13 15 16 13 10 8
48 51 53 56 53 52 49 45 44 44 42 44 42 42 43 37 38 38 38 36 28 29 26 26 27 25 26 26 28 29 29 28 27 26 26 26 23 21 18 16 15 14 14 15 16 18 14 12 11
50 52 52 53 56 54 51 51 48 49 47 48 42 46 48 40 40 42 40 37 33 30 28 28 28 26 27 28 28 31 31 29 28 26 26 26 24 22 19 18 17 16 16 16 18 18 15 14 14
52 55 53 46 51 54 56 57 52 49 53 43 46 48 50 46 44 44 43 37 35 33 31 30 29 29 28 30 29 30 31 31 29 28 26 25 26 24 22 20 19 19 17 18 19 18 17 17 17
55 53 50 50 60 62 63 62 60 56 50 45 55 55 46 46 45 47 42 40 36 38 35 33 32 31 30 30 29 30 33 33 31 29 26 25 25 25 23 22 22 21 19 19 21 19 19 19 19
60 57 54 57 61 65 73 64 65 63 59 46 53 58 49 45 47 47 45 41 40 38 37 35 34 32 31 29 30 31 33 34 32 30 28 26 25 25 24 24 24 21 20 21 22 21 21 20 20
67 62 62 62 62 66 68 68 66 67 61 64 56 59 51 48 49 50 48 49 41 40 38 37 36 35 31 32 31 33 33 34 34 31 28 27 27 26 26 26 25 22 22 23 24 23 22 21 22
75 70 68 71 67 65 69 69 71 66 63 64 59 60 48 52 53 53 53 52 50 44 44 40 39 37 34 34 33 34 34 35 36 33 31 30 29 29 29 27 26 24 25 25 26 26 25 24 25
70 72 70 72 72 69 73 72 75 64 65 64 63 61 58 46 54 54 53 52 51 48 44 45 41 39 38 36 35 35 36 36 34 33 33 31 30 29 29 27 28 27 27 27 28 29 28 27 27
59 69 71 73 73 70 75 78 70 66 71 70 67 63 59 44 51 55 55 53 52 52 50 43 43 41 42 40 37 36 36 37 36 35 34 33 32 31 27 29 29 30 31 30 30 30 29 29 29
42 50 60 57 59 66 73 75 67 76 75 74 69 64 65 57 47 54 58 56 55 57 53 46 44 44 44 43 40 38 35 36 37 36 35 33 33 30 28 33 32 33 34 33 33 33 31 31 32
27 37 39 42 42 53 68 73 77 81 83 79 76 63 64 64 56 57 59 58 55 56 53 49 43 46 46 45 43 41 40 39 36 36 35 34 35 31 35 35 35 36 36 36 36 35 34 33 34
30 33 33 35 34 38 55 73 78 81 83 83 75 71 69 65 50 51 62 59 57 56 56 52 49 46 48 48 46 44 42 42 40 39 38 40 37 35 38 38 39 39 39 39 39 39 36 36 36
34 33 35 32 32 35 45 61 68 77 83 85 84 80 70 69 70 30 54 59 59 57 56 58 51 44 42 47 48 47 43 44 43 40 41 41 38 40 41 42 42 42 42 42 42 40 38 37 38
28 30 30 34 32 40 43 45 44 61 85 87 86 82 78 73 78 67 53 59 56 57 55 48 51 50 43 46 43 50 48 46 45 45 43 41 42 43 44 44 44 44 44 44 44 40 39 39 40
32 33 29 29 25 42 46 50 45 60 79 86 91 86 79 76 72 71 63 56 58 55 52 52 49 46 51 44 39 35 46 49 47 43 45 44 45 44 45 46 46 46 45 44 44 41 40 40 42
38 31 32 27 27 36 41 50 46 48 73 85 87 87 81 80 72 70 65 60 55 58 52 52 52 46 43 47 43 38 34 48 47 46 50 49 48 46 45 47 47 47 44 43 43 43 42 43 45
31 32 29 34 34 33 37 51 47 41 60 82 89 85 81 77 72 73 67 64 55 56 57 52 51 50 42 40 42 39 43 37 49 50 51 48 48 48 47 46 47 46 44 43 44 46 47 46 46
25 27 27 27 28 35 23 39 51 43 49 73 87 85 84 77 72 71 66 65 56 52 53 55 54 53 51 43 37 40 44 41 37 47 50 49 48 48 46 46 46 46 45 46 47 48 49 48 48
15 16 17 24 28 32 24 34 43 38 40 54 79 87 83 78 74 68 65 63 56 54 55 51 54 52 49 47 46 43 42 45 44 48 52 48 46 48 48 48 47 47 47 48 50 51 51 51 51
13 8 15 20 27 28 24 24 24 25 29 40 67 80 80 76 70 65 62 57 55 45 49 47 49 48 47 44 43 42 41 41 42 49 47 41 44 49 49 48 48 49 48 50 51 53 52 53 54
10 3 8 16 20 16 8 6 3 14 29 38 59 77 76 73 67 61 58 57 53 48 46 46 45 43 39 40 39 40 43 39 37 39 38 43 48 50 50 50 50 51 52 51 53 54 54 54 56
8 9 5 10 11 16 17 15 12 6 28 35 50 63 66 65 61 55 54 53 52 47 44 44 45 41 36 35 29 30 29 30 39 41 44 45 47 48 49 50 51 53 53 52 55 54 56 59 62
14 20 20 15 8 9 21 7 14 14 28 35 41 48 51 57 56 51 52 51 48 42 43 44 43 41 39 34 31 35 35 35 38 46 45 43 46 45 47 52 52 54 56 54 56 57 58 62 57
13 11 17 25 18 17 21 24 14 12 18 23 42 50 49 52 53 50 50 51 49 41 40 40 40 41 40 41 39 37 37 41 46 40 44 54 48 48 50 51 53 57 59 60 63 59 60 64 55
Wind_Direction
263 258 260 260 258 257 256 249 250 239 241 243 238 239 235 234 232 233 222 228 227 227 230 236 236 228 222 217 207 195 184 178 180 179 177 177 172 169 163 156 129 83 29 7 354 295 245 235 242
261 258 254 255 258 257 260 257 248 241 238 239 242 239 228 235 227 233 229 225 225 228 227 233 232 232 221 216 208 203 193 186 185 183 181 181 179 178 177 179 182 92 341 339 347 332 298 283 282
262 257 254 251 254 256 259 260 255 244 240 231 235 237 229 231 230 234 232 227 223 226 224 227 229 230 227 217 208 207 199 192 191 188 188 186 185 186 190 204 223 274 303 323 335 327 304 287 278
261 260 254 253 256 256 256 253 251 245 239 239 231 236 235 230 230 232 231 226 220 222 225 225 223 228 227 219 210 209 204 197 194 194 192 193 194 197 204 216 239 264 290 309 318 318 302 289 275
257 257 256 253 254 254 251 246 241 245 244 242 231 231 235 232 232 231 233 226 221 222 223 225 222 225 227 218 212 209 206 203 201 197 195 198 202 206 214 228 246 264 285 300 308 311 297 293 280
259 254 253 254 251 250 248 248 239 239 245 244 235 231 229 233 231 233 231 224 215 220 222 224 223 223 227 219 215 208 208 205 204 201 200 202 206 210 220 231 246 260 273 287 300 307 294 290 285
260 259 255 250 248 247 248 245 244 239 240 244 246 232 231 225 231 233 233 228 223 222 221 223 226 223 225 222 218 212 211 210 208 205 205 207 210 215 222 232 245 259 270 280 292 300 292 289 276
259 256 254 251 248 246 249 249 246 241 233 232 227 236 233 222 229 233 234 232 224 223 221 224 228 226 225 223 221 219 216 213 211 209 210 213 216 222 228 238 248 256 266 278 290 295 289 289 275
256 255 257 254 252 250 249 244 242 240 238 222 233 240 232 225 224 228 232 232 225 225 223 223 228 228 227 222 223 219 218 214 214 213 214 218 222 225 232 240 247 255 263 276 287 290 289 285 269
256 255 254 248 243 243 243 242 240 238 231 236 231 232 231 226 222 224 229 231 229 228 226 226 227 229 228 226 222 218 219 218 217 216 217 219 224 230 235 240 250 257 264 278 288 286 287 280 267
258 254 249 245 243 241 243 239 240 238 233 225 231 236 235 227 221 225 223 230 231 228 227 226 227 229 229 227 223 217 218 219 216 215 216 220 225 232 237 245 251 253 264 278 287 287 287 279 269
256 251 246 244 243 243 243 240 238 237 235 232 227 231 231 225 222 223 224 228 233 230 227 227 226 228 228 230 223 219 217 216 214 215 219 223 228 233 240 246 252 254 265 278 285 285 283 279 272
256 250 249 244 241 245 243 239 239 235 235 237 235 228 219 230 222 221 222 224 228 232 231 230 228 225 226 229 226 222 218 219 217 217 219 225 230 236 242 248 250 254 267 278 283 284 283 282 275
262 258 252 245 243 248 240 237 235 233 237 236 234 233 227 228 224 221 223 223 224 230 233 232 229 223 224 226 229 225 221 219 222 222 225 227 232 238 246 246 251 257 267 273 280 283 280 283 278
265 261 258 250 249 246 238 232 232 230 236 234 231 230 225 215 230 223 223 222 222 226 232 233 229 225 224 225 226 228 226 225 223 226 228 231 235 239 243 249 254 259 265 271 277 278 277 280 279
267 261 259 254 249 240 238 228 226 229 228 232 232 226 226 223 226 223 221 222 222 223 227 228 233 227 225 225 225 230 229 230 231 231 233 235 236 241 250 255 259 262 263 271 277 278 275 278 280
268 269 258 255 249 246 237 227 223 226 227 226 228 223 221 223 224 225 222 221 223 227 226 227 230 231 226 228 227 229 231 232 233 235 237 240 244 250 253 257 261 264 265 270 276 277 274 276 279
270 268 261 254 245 239 236 225 225 223 225 223 223 226 220 217 213 222 226 221 221 224 229 228 227 232 226 229 230 230 233 237 238 242 246 248 251 254 256 260 263 265 267 270 274 277 273 275 281
275 267 263 256 257 254 243 231 230 225 219 223 223 219 218 216 211 197 222 220 221 224 228 234 233 225 230 234 234 234 234 238 240 243 246 250 253 255 260 263 264 266 268 270 273 275 273 276 281
274 275 268 262 248 251 251 250 248 232 219 216 221 220 217 213 216 219 219 221 220 222 227 232 233 240 239 235 240 234 235 236 239 242 245 250 254 258 261 263 265 266 267 269 272 273 272 276 281
272 271 277 283 262 249 250 247 244 231 222 214 220 216 216 216 216 217 218 219 222 222 227 227 230 235 240 245 240 249 242 236 240 245 251 253 254 257 262 264 266 267 267 270 271 269 271 276 279
279 266 264 273 276 260 250 257 244 240 224 217 215 218 215 213 214 218 217 218 222 220 223 224 229 234 239 243 244 254 251 242 239 242 246 250 254 258 261 265 268 269 269 268 268 269 272 275 279
279 268 262 251 264 269 247 255 241 237 233 217 210 215 216 217 213 215 216 216 218 219 222 225 228 233 239 243 240 248 248 252 243 240 248 252 257 261 264 267 269 268 267 267 268 271 272 275 278
265 271 273 241 247 260 279 259 255 233 236 220 210 210 215 215 219 217 216 216 215 218 222 224 228 231 235 240 246 254 253 250 251 246 244 249 255 259 262 264 265 266 266 266 269 271 273 276 280
273 267 264 236 248 274 290 266 255 236 230 227 213 208 214 213 215 215 216 221 218 219 222 225 229 232 239 240 248 255 255 252 251 254 242 247 253 259 260 261 263 265 267 269 271 273 275 278 281
300 259 244 244 261 283 282 288 278 247 221 222 215 209 212 214 214 215 216 219 222 224 230 230 233 235 240 245 252 255 260 256 256 252 241 249 255 258 259 259 260 263 267 270 272 275 278 281 283
10 56 216 271 279 295 282 18 345 219 196 205 211 208 208 213 211 214 215 218 220 219 225 229 234 236 240 246 255 255 260 263 245 238 240 249 257 259 260 261 262 265 266 270 273 276 280 283 283
39 8 295 273 280 301 330 59 55 188 183 183 203 208 208 214 213 210 213 217 218 219 221 228 228 232 234 242 240 243 260 276 242 242 249 253 257 261 263 265 265 268 270 273 275 278 279 284 286
28 352 339 320 313 350 16 68 117 175 167 172 191 202 206 211 215 209 213 217 218 219 218 224 226 232 231 239 242 246 252 263 270 249 244 252 256 263 266 268 270 271 271 273 273 276 281 282 286
331 298 323 337 339 338 14 50 109 124 154 170 186 196 202 207 212 210 212 215 218 220 223 224 228 234 235 239 246 251 253 260 262 263 260 251 251 258 264 267 270 271 272 273 276 277 276 284 281
Height
5775 5775 5776 5776 5779 5776 5777 5784 5785 5786 5789 5790 5793 5795 5798 5797 5799 5802 5804 5806 5810 5810 5812 5813 5814 5815 5816 5818 5822 5822 5823 5826 5828 5831 5834 5837 5839 5840 5842 5843 5843 5844 5844 5844 5844 5843 5843 5843 5843
5767 5767 5767 5769 5770 5770 5774 5780 5780 5783 5783 5786 5790 5791 5795 5793 5796 5799 5801 5802 5807 5808 5809 5811 5812 5813 5814 5816 5819 5822 5823 5824 5827 5830 5833 5835 5838 5839 5840 5841 5842 5842 5842 5843 5842 5842 5841 5841 5841
5759 5758 5759 5759 5762 5764 5768 5775 5778 5778 5777 5780 5785 5787 5788 5788 5796 5795 5796 5799 5803 5804 5807 5807 5810 5811 5812 5815 5817 5820 5822 5823 5825 5828 5831 5834 5836 5837 5838 5839 5840 5840 5841 5842 5841 5841 5840 5840 5841
5750 5749 5749 5751 5755 5760 5763 5769 5770 5771 5772 5772 5779 5782 5784 5788 5788 5791 5791 5794 5800 5800 5804 5804 5807 5809 5810 5813 5814 5818 5820 5822 5824 5826 5829 5832 5834 5835 5836 5837 5838 5838 5840 5840 5840 5839 5839 5839 5839
5738 5738 5738 5743 5749 5752 5755 5760 5762 5764 5766 5766 5772 5775 5779 5782 5784 5786 5787 5790 5796 5797 5799 5801 5804 5806 5808 5810 5812 5815 5818 5820 5822 5824 5826 5829 5831 5832 5834 5835 5836 5837 5838 5838 5838 5838 5837 5837 5837
5725 5726 5728 5734 5739 5743 5747 5751 5754 5756 5758 5760 5765 5769 5772 5778 5779 5781 5783 5785 5791 5793 5794 5797 5800 5803 5806 5808 5810 5812 5816 5818 5820 5821 5824 5826 5828 5830 5831 5833 5834 5836 5836 5837 5837 5836 5835 5835 5835
5714 5712 5721 5721 5728 5731 5737 5741 5745 5748 5751 5753 5756 5762 5763 5771 5774 5777 5779 5781 5786 5789 5790 5793 5796 5798 5802 5804 5807 5809 5812 5815 5817 5819 5821 5823 5825 5827 5828 5830 5832 5833 5834 5834 5834 5834 5833 5833 5833
5700 5699 5706 5713 5716 5721 5727 5729 5733 5737 5741 5745 5749 5751 5754 5764 5768 5771 5773 5776 5782 5784 5785 5788 5792 5794 5798 5801 5803 5806 5809 5812 5814 5816 5818 5820 5823 5825 5826 5828 5829 5830 5831 5831 5831 5831 5830 5830 5830
5686 5688 5695 5705 5705 5709 5709 5710 5715 5724 5727 5736 5737 5738 5745 5755 5759 5763 5767 5773 5777 5778 5780 5783 5787 5790 5793 5796 5799 5802 5806 5809 5811 5813 5815 5818 5820 5822 5823 5825 5826 5827 5828 5828 5828 5827 5827 5827 5827
5672 5675 5687 5688 5679 5685 5686 5691 5701 5707 5717 5723 5726 5732 5738 5747 5753 5756 5760 5765 5770 5772 5775 5778 5781 5786 5789 5792 5795 5798 5802 5805 5807 5810 5812 5815 5817 5819 5820 5822 5823 5824 5824 5825 5824 5823 5823 5823 5823
5656 5664 5664 5665 5666 5669 5665 5680 5687 5695 5706 5713 5718 5720 5730 5739 5744 5748 5754 5757 5763 5766 5770 5773 5776 5781 5785 5788 5791 5793 5797 5800 5803 5806 5808 5811 5814 5816 5817 5818 5819 5820 5821 5821 5821 5820 5820 5819 5819
5635 5642 5643 5648 5650 5652 5657 5665 5674 5680 5697 5698 5705 5709 5721 5728 5734 5740 5746 5751 5755 5760 5764 5768 5771 5775 5781 5784 5787 5789 5792 5795 5799 5802 5805 5807 5810 5812 5813 5815 5816 5816 5817 5817 5816 5816 5816 5815 5815
5610 5618 5623 5625 5631 5637 5641 5650 5657 5670 5683 5691 5698 5700 5710 5716 5723 5730 5736 5743 5748 5753 5757 5762 5765 5770 5774 5779 5782 5785 5788 5791 5794 5797 5800 5802 5805 5807 5809 5811 5812 5812 5813 5813 5812 5812 5812 5811 5811
5585 5589 5598 5604 5611 5618 5624 5631 5638 5664 5669 5675 5682 5692 5701 5708 5713 5720 5727 5735 5741 5746 5751 5755 5759 5764 5768 5773 5778 5780 5783 5786 5790 5793 5796 5798 5800 5802 5805 5806 5806 5809 5809 5808 5808 5807 5807 5806 5806
5564 5567 5573 5583 5591 5596 5600 5608 5629 5649 5649 5658 5669 5679 5689 5696 5703 5711 5719 5726 5733 5739 5742 5748 5753 5757 5763 5767 5772 5775 5779 5782 5785 5788 5791 5793 5795 5797 5801 5800 5802 5804 5804 5803 5802 5801 5801 5801 5800
5549 5549 5553 5566 5566 5575 5575 5601 5620 5619 5627 5640 5652 5665 5676 5687 5688 5700 5709 5717 5724 5730 5736 5742 5746 5750 5756 5761 5766 5771 5775 5777 5781 5783 5786 5788 5790 5793 5796 5794 5797 5798 5798 5797 5797 5796 5796 5795 5794
5543 5538 5541 5545 5551 5554 5559 5585 5591 5595 5604 5620 5632 5647 5661 5674 5684 5693 5700 5708 5716 5723 5728 5735 5740 5744 5750 5755 5759 5764 5769 5772 5775 5779 5782 5783 5785 5790 5788 5789 5791 5791 5791 5791 5790 5790 5790 5789 5787
5533 5531 5532 5533 5540 5540 5545 5559 5562 5573 5586 5603 5619 5635 5646 5660 5678 5679 5690 5699 5707 5715 5720 5726 5732 5737 5743 5748 5752 5757 5763 5767 5771 5774 5777 5777 5780 5782 5782 5784 5784 5784 5785 5784 5784 5783 5783 5782 5781
5524 5524 5523 5528 5534 5533 5534 5536 5540 5553 5570 5585 5601 5616 5634 5654 5657 5661 5679 5689 5698 5706 5714 5719 5725 5732 5737 5743 5747 5751 5757 5760 5765 5767 5769 5772 5775 5773 5775 5777 5777 5777 5778 5777 5776 5775 5775 5774 5773
5516 5514 5515 5518 5524 5521 5522 5522 5527 5537 5553 5570 5582 5601 5617 5635 5647 5657 5669 5681 5688 5697 5705 5712 5719 5725 5731 5736 5739 5743 5748 5752 5756 5759 5762 5766 5766 5766 5767 5769 5770 5769 5769 5770 5768 5767 5767 5766 5765
5509 5508 5510 5509 5512 5510 5510 5511 5518 5528 5539 5558 5570 5585 5605 5622 5636 5650 5662 5673 5681 5689 5697 5706 5711 5717 5723 5727 5730 5735 5740 5745 5748 5755 5755 5759 5758 5759 5760 5761 5761 5761 5761 5762 5761 5759 5758 5758 5756
5494 5502 5500 5502 5503 5501 5507 5495 5508 5517 5526 5541 5562 5578 5596 5607 5627 5639 5652 5664 5673 5681 5689 5697 5705 5711 5715 5720 5725 5730 5734 5736 5741 5743 5743 5747 5749 5751 5752 5753 5753 5753 5753 5753 5753 5751 5750 5749 5747
5489 5489 5489 5492 5495 5494 5495 5488 5496 5508 5513 5530 5551 5571 5588 5605 5618 5628 5642 5656 5665 5672 5682 5691 5698 5704 5708 5713 5717 5723 5726 5727 5730 5733 5736 5740 5742 5743 5744 5744 5744 5745 5744 5744 5744 5742 5741 5739 5738
5483 5482 5483 5485 5489 5484 5489 5486 5484 5498 5508 5521 5541 5561 5578 5595 5609 5623 5636 5644 5659 5666 5674 5682 5689 5696 5701 5705 5711 5717 5718 5719 5723 5724 5728 5730 5732 5733 5734 5734 5735 5736 5735 5735 5734 5732 5731 5730 5728
5481 5480 5480 5482 5482 5478 5485 5479 5476 5493 5503 5513 5531 5549 5564 5583 5597 5614 5628 5639 5654 5660 5667 5675 5682 5689 5695 5700 5705 5709 5709 5710 5714 5714 5716 5720 5722 5724 5725 5724 5725 5726 5726 5726 5725 5723 5722 5720 5718
5481 5479 5480 5480 5479 5479 5480 5471 5476 5488 5499 5509 5525 5543 5561 5577 5596 5611 5625 5636 5646 5659 5664 5673 5679 5684 5689 5695 5698 5700 5702 5703 5703 5703 5708 5711 5713 5714 5714 5715 5715 5716 5716 5715 5715 5714 5712 5711 5708
5483 5482 5482 5480 5480 5476 5474 5473 5475 5481 5492 5504 5522 5540 5558 5574 5591 5608 5621 5630 5641 5651 5658 5666 5673 5678 5683 5686 5689 5693 5694 5695 5694 5696 5700 5702 5704 5706 5705 5706 5705 5705 5706 5705 5704 5703 5702 5698 5696
5487 5486 5486 5483 5479 5475 5474 5477 5480 5485 5492 5504 5522 5541 5560 5573 5588 5604 5616 5625 5635 5643 5651 5658 5664 5670 5676 5678 5682 5685 5688 5689 5688 5689 5692 5694 5697 5697 5697 5697 5697 5696 5695 5694 5693 5691 5689 5686 5682
5490 5488 5484 5483 5482 5477 5478 5485 5490 5490 5493 5505 5523 5540 5556 5570 5585 5601 5612 5622 5630 5638 5645 5651 5656 5663 5669 5673 5676 5679 5681 5682 5680 5682 5684 5686 5687 5688 5688 5688 5687 5686 5685 5684 5681 5679 5676 5673 5671
5495 5490 5487 5483 5484 5483 5481 5486 5493 5500 5506 5512 5520 5535 5553 5570 5582 5595 5606 5616 5623 5632 5639 5646 5650 5657 5662 5666 5669 5672 5674 5674 5674 5674 5675 5675 5676 5677 5677 5676 5676 5675 5672 5670 5668 5666 5664 5659 5656